| time (UTC) | temp F | wind direction | speed knots | gust knots | rain 1hr in | rain 24hr in | rain mn in | humidity % | barometer mb |
| 20260504081035 | 63 | 303 | 4.3 | 9.6 | 0.00 | 0.00 | 0.00 | 65 | 1011.3 |
| 20260504045027 | 67 | 292 | 7.0 | 15.6 | 0.00 | 0.02 | 0.00 | 54 | 1010.2 |
| 20260504044025 | 67 | 322 | 4.3 | 13.9 | 0.00 | 0.02 | 0.00 | 53 | 1010.3 |
| 20260504043043 | 67 | 304 | 7.0 | 18.2 | 0.00 | 0.03 | 0.00 | 53 | 1010.2 |
| 20260504042020 | 67 | 305 | 5.2 | 15.6 | 0.00 | 0.03 | 0.00 | 53 | 1010.2 |
| 20260504041017 | 67 | 317 | 6.1 | 12.2 | 0.00 | 0.05 | 0.00 | 53 | 1010.2 |
| 20260504040035 | 67 | 324 | 7.0 | 16.5 | 0.00 | 0.06 | 0.00 | 52 | 1010.4 |
| 20260504035034 | 67 | 316 | 4.3 | 12.2 | 0.00 | 0.06 | 0.00 | 52 | 1010.5 |
| 20260504033028 | 67 | 334 | 6.1 | 15.6 | 0.00 | 0.06 | 0.00 | 51 | 1010.6 |
| 20260504032026 | 67 | 294 | 5.2 | 14.8 | 0.00 | 0.06 | 0.00 | 53 | 1010.7 |
| 20260504031023 | 67 | 302 | 4.3 | 13.0 | 0.00 | 0.06 | 0.00 | 53 | 1010.9 |
| 20260504030020 | 66 | 314 | 4.3 | 13.0 | 0.00 | 0.06 | 0.00 | 54 | 1011.0 |
| 20260504025018 | 66 | 305 | 3.5 | 7.8 | 0.00 | 0.06 | 0.00 | 55 | 1011.2 |
| 20260504024015 | 66 | 301 | 5.2 | 12.2 | 0.00 | 0.06 | 0.00 | 56 | 1011.3 |
| 20260504023033 | 66 | 292 | 4.3 | 13.0 | 0.00 | 0.06 | 0.00 | 56 | 1011.4 |
| 20260504022031 | 65 | 294 | 5.2 | 12.2 | 0.00 | 0.06 | 0.00 | 56 | 1011.5 |
| 20260504021034 | 65 | 268 | 5.2 | 13.9 | 0.00 | 0.06 | 0.00 | 57 | 1011.8 |
| 20260504020027 | 65 | 304 | 4.3 | 9.6 | 0.00 | 0.06 | 0.00 | 59 | 1011.9 |
| 20260504015043 | 64 | 299 | 5.2 | 14.8 | 0.00 | 0.06 | 0.00 | 60 | 1012.0 |
| 20260504014021 | 65 | 290 | 6.1 | 15.6 | 0.00 | 0.06 | 0.00 | 59 | 1012.2 |
| 20260504013018 | 64 | 304 | 6.1 | 15.6 | 0.00 | 0.07 | 0.00 | 59 | 1012.1 |
| 20260504012015 | 64 | 313 | 7.0 | 18.2 | 0.00 | 0.08 | 0.00 | 60 | 1012.2 |
| 20260504011033 | 64 | 307 | 4.3 | 14.8 | 0.00 | 0.10 | 0.00 | 61 | 1012.1 |
| 20260504010031 | 64 | 314 | 5.2 | 12.2 | 0.00 | 0.10 | 0.00 | 62 | 1012.2 |
| 20260504005034 | 63 | 306 | 4.3 | 13.0 | 0.00 | 0.11 | 0.00 | 62 | 1012.3 |
| 20260504004025 | 63 | 303 | 4.3 | 11.3 | 0.00 | 0.13 | 0.00 | 63 | 1012.3 |
| 20260504003023 | 63 | 276 | 4.3 | 15.6 | 0.00 | 0.15 | 0.00 | 64 | 1012.2 |
| 20260504002022 | 63 | 300 | 4.3 | 11.3 | 0.00 | 0.17 | 0.00 | 65 | 1012.1 |
| 20260504001019 | 62 | 279 | 4.3 | 8.7 | 0.00 | 0.17 | 0.00 | 65 | 1012.1 |
| 20260504000017 | 62 | 308 | 6.1 | 13.9 | 0.00 | 0.19 | 0.19 | 65 | 1012.2 |
| 20260503235035 | 61 | 309 | 3.5 | 11.3 | 0.00 | 0.19 | 0.19 | 66 | 1012.3 |
| 20260503234051 | 61 | 309 | 4.3 | 9.6 | 0.00 | 0.19 | 0.19 | 66 | 1012.3 |
| 20260503233028 | 60 | 272 | 4.3 | 11.3 | 0.00 | 0.19 | 0.19 | 67 | 1012.4 |
| 20260503232027 | 60 | 303 | 3.5 | 7.8 | 0.00 | 0.19 | 0.19 | 68 | 1012.5 |
| 20260503231024 | 60 | 312 | 2.6 | 8.7 | 0.00 | 0.19 | 0.19 | 68 | 1012.4 |
| 20260503230041 | 59 | 291 | 1.7 | 7.8 | 0.00 | 0.19 | 0.19 | 69 | 1012.4 |
| 20260503225019 | 59 | 288 | 3.5 | 7.8 | 0.00 | 0.19 | 0.19 | 70 | 1012.5 |
| 20260503224037 | 59 | 309 | 2.6 | 7.8 | 0.00 | 0.19 | 0.19 | 72 | 1012.4 |
| 20260503223035 | 58 | 275 | 0.9 | 2.6 | 0.00 | 0.19 | 0.19 | 73 | 1012.6 |
| 20260503222031 | 58 | 289 | 1.7 | 7.8 | 0.00 | 0.19 | 0.19 | 74 | 1012.6 |
| 20260503221029 | 58 | 287 | 0.9 | 2.6 | 0.00 | 0.19 | 0.19 | 75 | 1012.6 |
| 20260503220027 | 57 | 145 | 0.9 | 2.6 | 0.00 | 0.19 | 0.19 | 75 | 1012.5 |
| 20260503215024 | 57 | 321 | 0.0 | 2.6 | 0.00 | 0.19 | 0.19 | 75 | 1012.8 |
| 20260503214103 | 57 | 319 | 0.0 | 1.7 | 0.00 | 0.19 | 0.19 | 75 | 1012.6 |
| 20260503213019 | 57 | 256 | 0.0 | 3.5 | 0.00 | 0.19 | 0.19 | 75 | 1012.6 |
| 20260503212017 | 57 | 206 | 0.0 | 2.6 | 0.00 | 0.19 | 0.19 | 76 | 1012.4 |
| 20260503211033 | 57 | 238 | 0.0 | 2.6 | 0.00 | 0.19 | 0.19 | 75 | 1012.5 |
| 20260503210031 | 57 | 309 | 0.0 | 0.9 | 0.00 | 0.19 | 0.19 | 76 | 1012.5 |
| 20260503205029 | 57 | 254 | 0.0 | 3.5 | 0.00 | 0.19 | 0.19 | 77 | 1012.4 |
| 20260503204026 | 56 | 307 | 0.0 | 3.5 | 0.00 | 0.19 | 0.19 | 78 | 1012.4 |
| 20260503203025 | 56 | 79 | 0.0 | 1.7 | 0.00 | 0.19 | 0.19 | 79 | 1012.2 |
| 20260503202022 | 56 | 0.0 | 0.0 | 0.00 | 0.19 | 0.19 | 79 | 1012.2 | |
| 20260503201018 | 56 | 0.0 | 0.0 | 0.00 | 0.19 | 0.19 | 78 | 1012.2 | |
| 20260503200016 | 56 | 0.0 | 0.0 | 0.00 | 0.19 | 0.19 | 78 | 1012.3 | |
| 20260503195034 | 56 | 0.0 | 0.0 | 0.00 | 0.19 | 0.19 | 78 | 1012.3 | |
| 20260503194052 | 56 | 316 | 0.0 | 2.6 | 0.00 | 0.19 | 0.19 | 78 | 1012.3 |
| 20260503193030 | 57 | 0.0 | 0.0 | 0.00 | 0.19 | 0.19 | 78 | 1012.4 | |
| 20260503192027 | 57 | 0.0 | 0.0 | 0.00 | 0.19 | 0.19 | 78 | 1012.5 | |
| 20260503191049 | 57 | 0.0 | 0.0 | 0.00 | 0.19 | 0.19 | 78 | 1012.6 | |
| 20260503190022 | 57 | 0.0 | 0.0 | 0.00 | 0.19 | 0.19 | 78 | 1012.6 | |
| 20260503185024 | 57 | 290 | 0.0 | 1.7 | 0.00 | 0.19 | 0.19 | 78 | 1012.7 |
| 20260503184020 | 57 | 130 | 0.0 | 2.6 | 0.00 | 0.19 | 0.19 | 79 | 1012.6 |
| 20260503183038 | 57 | 167 | 0.0 | 1.7 | 0.00 | 0.19 | 0.19 | 79 | 1012.6 |
| 20260503182036 | 56 | 11 | 0.0 | 1.7 | 0.00 | 0.19 | 0.19 | 80 | 1012.7 |
| 20260503181034 | 56 | 104 | 0.0 | 0.9 | 0.00 | 0.19 | 0.19 | 80 | 1012.8 |
| 20260503180028 | 57 | 120 | 0.0 | 0.9 | 0.00 | 0.19 | 0.19 | 80 | 1012.9 |
| 20260503175025 | 57 | 0.0 | 0.0 | 0.00 | 0.19 | 0.19 | 80 | 1012.9 | |
| 20260503174023 | 57 | 186 | 0.0 | 0.9 | 0.00 | 0.19 | 0.19 | 79 | 1013.1 |
| 20260503173020 | 57 | 202 | 0.0 | 2.6 | 0.00 | 0.19 | 0.19 | 79 | 1013.1 |
| 20260503172021 | 57 | 267 | 0.0 | 0.9 | 0.00 | 0.19 | 0.19 | 79 | 1013.1 |